Cloud_Cover
92 98 59 79 99 100 100 100 100 92 63 10 5 5 7 6 6 5 5 5 7 5
34 86 100 100 100 100 92 20 5 2 5 5 11 100 39 5 6 32 5 5 13 58
62 62 66 71 47 4 0 1 0 5 5 5 82 99 75 52 90 92 100 100 100 97
36 7 5 1 0 0 0 4 0 0 5 5 5 5 10 14 30 67 77 55 68 100
5 1 0 0 0 0 1 5 5 0 5 4 3 5 5 5 5 5 5 6 90 100
4 5 0 4 1 0 4 5 44 3 9 4 39 5 5 5 5 5 10 100 100 79
5 5 5 10 6 47 80 98 100 100 98 74 95 73 18 4 5 5 5 5 5 5
5 40 61 7 55 81 100 100 100 100 100 100 96 58 2 5 5 5 11 5 5 1
74 27 6 6 91 31 82 100 100 100 100 100 90 0 5 5 6 5 5 5 4 4
0 1 3 5 5 30 100 100 100 100 100 95 5 5 5 5 5 5 5 5 5 5
0 4 78 46 56 27 100 100 100 100 99 20 94 5 5 5 5 5 5 5 5 5
5 5 2 56 85 16 100 100 100 97 82 83 16 5 5 5 11 5 5 5 5 22
5 3 15 98 45 45 98 100 100 71 99 5 5 5 6 37 89 69 39 62 16 12
5 5 92 99 83 93 100 100 99 71 5 5 5 4 5 28 5 20 99 54 31 23